,

(GMT )
Holesov

Weather History for LKHO - January, 2014

Change the Weather History Date:

Friday, January 10, 2014

  Actual Average (WUND) Record (WUND)
Temperature  
Mean Temperature 42 °F -  
Max Temperature 46 °F - - (-1)
Min Temperature 38 °F - - (-1)
Degree Days  
Heating Degree Days 23    
Moisture  
Dew Point 35 °F    
Average Humidity 71    
Maximum Humidity 94    
Minimum Humidity 51    
Precipitation  
Precipitation 0.08 in - - ()
Sea Level Pressure  
Sea Level Pressure 30.01 in    
Wind  
Wind Speed 9 mph ()    
Max Wind Speed 18 mph    
Max Gust Speed -    
Visibility 9.7 miles    
Events Rain , Snow    
Averages and records for this station are not official NWS values.
T = Trace of Precipitation, MM = Missing Value Source: Averaged Metar Reports

Daily Weather History Graph

Daily Weather History Graph

Search for Another Location

Airport or City:

Astronomy

Jan. 10, 2014 Rise Set
Actual Time 7:42 AM CET 4:11 PM CET
Civil Twilight 7:06 AM CET 4:48 PM CET
Nautical Twilight 6:25 AM CET 5:28 PM CET
Astronomical Twilight 5:47 AM CET 6:07 PM CET
Moon 12:13 PM CET (1/10) 2:22 AM CET (1/10)
Length of Visible Light 9h 42m
Length of Day
8h 29m
Waxing Gibbous, 73% of the Moon is Illuminated
Jan 10
Waxing Gibbous
Jan 16
Full
Jan 24
Last Quarter
Jan 30
New
Feb 6
First Quarter

Hourly Weather History & Observations

Time (CET) Temp. Dew Point Humidity Pressure Visibility Wind Dir Wind Speed Gust Speed Precip Events Conditions
2:00 AM 40 °F 37 °F 87% 29.85 in 10 mi South 13.4 mph - - Rain Light Rain Showers
3:00 AM 40 °F 38 °F 88% 29.86 in 10 mi South 11.2 mph - - Rain Light Rain Showers
4:00 AM 40 °F 38 °F 88% 29.89 in 6 mi SSE 8.9 mph - - Rain Light Rain
5:00 AM 40 °F 39 °F 93% 29.88 in 5 mi SSE 13.4 mph - - Snow Light Snow
6:00 AM 40 °F 38 °F 92% 29.91 in 4 mi SSE 11.2 mph - -   Unknown Precipitation
7:00 AM 40 °F 39 °F 94% 29.94 in 5 mi SSW 4.5 mph - - Rain Light Rain
8:00 AM 40 °F 38 °F 90% 29.96 in 12 mi West 4.5 mph - - Rain Light Rain
9:00 AM 40 °F 39 °F 93% 29.98 in 25 mi NNW 2.2 mph - -   Partly Cloudy
10:00 AM 43 °F 36 °F 67% 30.01 in 31 mi West 11.2 mph - -   Partly Cloudy
11:00 AM 45 °F 34 °F 55% 30.01 in 31 mi West 17.9 mph - -   Scattered Clouds
12:00 PM 46 °F 34 °F 51% 30.01 in 37 mi West 13.4 mph - -   Partly Cloudy
1:00 PM 45 °F 35 °F 58% 30.01 in 19 mi West 13.4 mph - -   Partly Cloudy
2:00 PM 46 °F 34 °F 51% 30.01 in 37 mi West 13.4 mph - -   Mostly Cloudy
3:00 PM 45 °F 33 °F 52% 30.04 in 37 mi West 11.2 mph - -   Mostly Cloudy
4:00 PM 43 °F 34 °F 60% 30.07 in 37 mi West 6.7 mph - -   Mostly Cloudy
5:00 PM 42 °F 32 °F 58% 30.08 in 12 mi West 6.7 mph - -   Mostly Cloudy
6:00 PM 41 °F 33 °F 64% 30.09 in 25 mi SW 6.7 mph - -   Partly Cloudy
7:00 PM 41 °F 32 °F 60% 30.10 in 25 mi West 8.9 mph - -   Partly Cloudy
8:00 PM 40 °F 32 °F 63% 30.12 in 25 mi WSW 6.7 mph - -   Mostly Cloudy
9:00 PM 38 °F 31 °F 66% 30.12 in 25 mi SW 8.9 mph - -   Partly Cloudy
10:00 PM 38 °F 31 °F 67% 30.13 in 12 mi SW 6.7 mph - -   Mostly Cloudy
11:00 PM 38 °F 31 °F 66% 30.14 in 12 mi SW 6.7 mph - -   Mostly Cloudy